Flag for Mexico Weather past 2 weeks in Guadalajara, Jalisco, Mexico

Now
63 °F

Mostly cloudy.


Feels Like: 63 °F
Forecast: 53 / 72 °F
Wind: 3 mph from North

Location: Don Miguel / Guadalaj

Current Time: Dec 27, 2014 at 10:02:42 PM

Latest Report: Dec 27, 2014 at 8:52 PM


Visibility: 10 mi

Pressure: 30.00 "Hg

Humidity: 73%

Dew point: 54 °F

Location of GuadalajaraLocation

Historic Weather in Guadalajara — Graph

°F

Guadalajara temperature yesterday

Maximum temperature yesterday: 72 °F (at 2:46 PM)
Minimum temperature yesterday: 43 °F (at 7:56 AM)
Average temperature yesterday: 58 °F

Past Weeks' High & Low Weather Summary

 TemperatureHumidityPressure
High84 °F (Dec 21, 1:50 PM)100% (Dec 14, 9:13 AM)30.29 "Hg (Dec 14, 9:13 AM)
Low34 °F (Dec 14, 9:13 AM)15% (Dec 21, 1:50 PM)29.74 "Hg (Dec 23, 2:53 PM)
Average60 °F61%30.08 "Hg
* Reported Dec 12 7:53 PM — Dec 27 7:48 PM, Guadalajara, Weather by CustomWeather, © 2014

Note: Actual official high and low records may vary slightly from our data, if they occured in-between our weather recording intervals... More about our weather records

Advertising

Guadalajara weather history for previous 24 hours

 ConditionsComfort  
Time TempWeatherWind HumidityBarometerVisibility
7:48 PM
Dec 27
64 °FOvercast.6 mph68%30.21 "Hg10 mi
6:49 PM66 °FOvercast.No wind64%30.19 "Hg10 mi
5:52 PM68 °FMostly cloudy.7 mph56%29.93 "Hg10 mi
4:55 PM70 °FBroken clouds.8 mph53%30.16 "Hg10 mi
3:47 PM72 °FBroken clouds.10 mph50%30.15 "Hg10 mi
2:53 PM68 °FBroken clouds.16 mph56%29.92 "Hg10 mi
1:55 PM75 °FPartly sunny.7 mph39%30.16 "Hg8 mi
12:55 PM73 °FPartly sunny.No wind41%30.20 "Hg8 mi
11:55 AM70 °FBroken clouds.7 mph53%29.97 "Hg8 mi
10:51 AM66 °FBroken clouds.No wind56%30.26 "Hg7 mi
9:58 AM63 °FBroken clouds.No wind64%30.27 "Hg6 mi
8:51 AM57 °FPartly sunny.No wind77%30.05 "Hg10 mi
7:55 AM52 °FBroken clouds.No wind88%30.22 "Hg10 mi
6:47 AM52 °FPartly cloudy.No wind82%30.20 "Hg10 mi
5:53 AM52 °FPassing clouds.3 mph82%29.94 "Hg10 mi
4:53 AM50 °FPassing clouds.3 mph88%30.19 "Hg10 mi
3:51 AM54 °FPassing clouds.No wind82%30.18 "Hg10 mi
1:52 AM57 °FPassing clouds.No wind72%30.19 "Hg10 mi
12:54 AM55 °FPassing clouds.No wind72%30.19 "Hg10 mi
11:49 PM
Dec 26
57 °FPassing clouds.3 mph67%29.95 "Hg10 mi
10:48 PM55 °FPassing clouds.3 mph72%30.20 "Hg10 mi
Weather by CustomWeather, © 2014

See weather overviewHow to use our weather pages